INTELSAT 32E (IS-32E)

Last updated on Mon Sep 14 2026 00:02:59 GMT+0000 (Coordinated Universal Time)

1 41945U 17007B 26256.49740553 -.00000280 00000+0 00000+0 0 9995 2 41945 0.0248 245.0868 0000561 207.6509 35.6511 1.00273073 35117
UTC large
Height (km)
Speed (km/s)
/
Latitude / Longitude
Inclination (degrees)
Orbital Period (minutes)
Azimuth
Elevation
Range (km)
Doppler Factor

Next 0 passes for location: London (51.5072 / 0.1276)

No passes found over London.
INTELSAT 32E (IS-32E)